| time (UTC) | temp F | wind direction | speed MPH | gust MPH | rain 1hr in | rain 24hr in | rain mn in | humidity % | barometer mb |
| 20260903065511 | 91 | 217 | 0.0 | 2.0 | 0.00 | 0.00 | 0.00 | 22 | 1007.9 |
| 20260903065010 | 91 | 217 | 0.0 | 3.0 | 0.00 | 0.00 | 0.00 | 22 | 1007.9 |
| 20260903064510 | 91 | 213 | 0.0 | 5.0 | 0.00 | 0.00 | 0.00 | 22 | 1007.8 |
| 20260903064010 | 91 | 238 | 1.0 | 5.0 | 0.00 | 0.00 | 0.00 | 23 | 1007.8 |
| 20260903063511 | 91 | 247 | 2.0 | 5.0 | 0.00 | 0.00 | 0.00 | 23 | 1007.8 |
| 20260903063013 | 91 | 294 | 1.0 | 5.0 | 0.00 | 0.00 | 0.00 | 24 | 1007.8 |
| 20260903062509 | 91 | 296 | 2.0 | 6.0 | 0.00 | 0.00 | 0.00 | 23 | 1007.8 |
| 20260903062009 | 91 | 300 | 3.0 | 6.0 | 0.00 | 0.00 | 0.00 | 23 | 1007.8 |
| 20260903061510 | 91 | 345 | 4.0 | 7.0 | 0.00 | 0.00 | 0.00 | 22 | 1007.8 |
| 20260903061012 | 91 | 318 | 3.0 | 9.0 | 0.00 | 0.00 | 0.00 | 22 | 1007.7 |
| 20260903060509 | 91 | 295 | 4.0 | 9.0 | 0.00 | 0.00 | 0.00 | 22 | 1007.7 |
| 20260903060029 | 91 | 322 | 5.0 | 9.0 | 0.00 | 0.00 | 0.00 | 22 | 1007.6 |
| 20260903055511 | 91 | 319 | 5.0 | 8.0 | 0.00 | 0.00 | 0.00 | 23 | 1007.6 |
| 20260903055008 | 91 | 318 | 4.0 | 9.0 | 0.00 | 0.00 | 0.00 | 23 | 1007.7 |
| 20260903054508 | 91 | 298 | 4.0 | 8.0 | 0.00 | 0.00 | 0.00 | 23 | 1007.7 |
| 20260903054008 | 91 | 315 | 3.0 | 9.0 | 0.00 | 0.00 | 0.00 | 22 | 1007.6 |
| 20260903053509 | 92 | 291 | 5.0 | 9.0 | 0.00 | 0.00 | 0.00 | 22 | 1007.7 |
| 20260903053008 | 92 | 300 | 5.0 | 9.0 | 0.00 | 0.00 | 0.00 | 22 | 1007.7 |
| 20260903052510 | 92 | 319 | 4.0 | 9.0 | 0.00 | 0.00 | 0.00 | 22 | 1007.8 |
| 20260903052008 | 92 | 304 | 6.0 | 9.0 | 0.00 | 0.00 | 0.00 | 21 | 1007.7 |
| 20260903051507 | 92 | 308 | 5.0 | 10.0 | 0.00 | 0.00 | 0.00 | 21 | 1007.8 |
| 20260903051008 | 92 | 295 | 6.0 | 10.0 | 0.00 | 0.00 | 0.00 | 20 | 1007.8 |
| 20260903050507 | 93 | 302 | 6.0 | 11.0 | 0.00 | 0.00 | 0.00 | 20 | 1007.8 |
| 20260903050007 | 93 | 288 | 6.0 | 11.0 | 0.00 | 0.00 | 0.00 | 20 | 1007.7 |
| 20260903045507 | 93 | 316 | 6.0 | 10.0 | 0.00 | 0.00 | 0.00 | 20 | 1007.7 |
| 20260903045006 | 93 | 306 | 6.0 | 11.0 | 0.00 | 0.00 | 0.00 | 20 | 1007.7 |
| 20260903044507 | 93 | 324 | 6.0 | 11.0 | 0.00 | 0.00 | 0.00 | 20 | 1007.7 |
| 20260903044008 | 93 | 287 | 6.0 | 11.0 | 0.00 | 0.00 | 0.00 | 20 | 1007.8 |
| 20260903043507 | 93 | 318 | 5.0 | 10.0 | 0.00 | 0.00 | 0.00 | 21 | 1007.8 |
| 20260903043015 | 93 | 302 | 4.0 | 10.0 | 0.00 | 0.00 | 0.00 | 21 | 1007.8 |
| 20260903042507 | 93 | 336 | 4.0 | 12.0 | 0.00 | 0.00 | 0.00 | 20 | 1007.8 |
| 20260903042005 | 93 | 286 | 5.0 | 12.0 | 0.00 | 0.00 | 0.00 | 19 | 1007.8 |
| 20260903041505 | 94 | 302 | 3.0 | 9.0 | 0.00 | 0.00 | 0.00 | 21 | 1007.8 |
| 20260903041004 | 94 | 286 | 5.0 | 9.0 | 0.00 | 0.00 | 0.00 | 20 | 1007.7 |
| 20260903040504 | 94 | 307 | 4.0 | 8.0 | 0.00 | 0.00 | 0.00 | 21 | 1007.6 |
| 20260903040008 | 94 | 298 | 5.0 | 8.0 | 0.00 | 0.00 | 0.00 | 20 | 1007.6 |
| 20260903035504 | 95 | 287 | 3.0 | 7.0 | 0.00 | 0.00 | 0.00 | 21 | 1007.5 |
| 20260903035004 | 95 | 309 | 4.0 | 7.0 | 0.00 | 0.00 | 0.00 | 20 | 1007.6 |
| 20260903034506 | 95 | 279 | 3.0 | 9.0 | 0.00 | 0.00 | 0.00 | 20 | 1007.5 |
| 20260903034004 | 95 | 261 | 5.0 | 9.0 | 0.00 | 0.00 | 0.00 | 20 | 1007.5 |
| 20260903033503 | 95 | 281 | 2.0 | 6.0 | 0.00 | 0.00 | 0.00 | 20 | 1007.4 |
| 20260903033009 | 95 | 280 | 3.0 | 7.0 | 0.00 | 0.00 | 0.00 | 20 | 1007.4 |
| 20260903032505 | 95 | 263 | 2.0 | 7.0 | 0.00 | 0.00 | 0.00 | 20 | 1007.4 |
| 20260903032002 | 95 | 292 | 2.0 | 6.0 | 0.00 | 0.00 | 0.00 | 21 | 1007.3 |
| 20260903031504 | 95 | 296 | 2.0 | 5.0 | 0.00 | 0.00 | 0.00 | 21 | 1007.3 |
| 20260903031002 | 95 | 335 | 2.0 | 5.0 | 0.00 | 0.00 | 0.00 | 22 | 1007.2 |
| 20260903030501 | 95 | 243 | 2.0 | 4.0 | 0.00 | 0.00 | 0.00 | 23 | 1007.1 |
| 20260903030002 | 95 | 278 | 1.0 | 4.0 | 0.00 | 0.00 | 0.00 | 24 | 1007.1 |
| 20260903025501 | 95 | 253 | 1.0 | 6.0 | 0.00 | 0.00 | 0.00 | 25 | 1007.0 |
| 20260903025003 | 96 | 250 | 1.0 | 6.0 | 0.00 | 0.00 | 0.00 | 25 | 1006.9 |
| 20260903024502 | 96 | 254 | 1.0 | 6.0 | 0.00 | 0.00 | 0.00 | 26 | 1006.9 |
| 20260903024001 | 96 | 290 | 1.0 | 6.0 | 0.00 | 0.00 | 0.00 | 27 | 1006.7 |
| 20260903023503 | 96 | 229 | 1.0 | 7.0 | 0.00 | 0.00 | 0.00 | 27 | 1006.7 |
| 20260903023108 | 96 | 286 | 2.0 | 7.0 | 0.00 | 0.00 | 0.00 | 27 | 1006.7 |
| 20260903022600 | 96 | 260 | 3.0 | 7.0 | 0.00 | 0.00 | 0.00 | 27 | 1006.6 |
| 20260903022102 | 96 | 227 | 2.0 | 10.0 | 0.00 | 0.00 | 0.00 | 27 | 1006.5 |
| 20260903021608 | 96 | 207 | 4.0 | 10.0 | 0.00 | 0.00 | 0.00 | 26 | 1006.5 |
| 20260903021100 | 96 | 234 | 4.0 | 8.0 | 0.00 | 0.00 | 0.00 | 26 | 1006.6 |
| 20260903020559 | 96 | 255 | 3.0 | 7.0 | 0.00 | 0.00 | 0.00 | 26 | 1006.5 |
| 20260903020104 | 97 | 269 | 2.0 | 8.0 | 0.00 | 0.00 | 0.00 | 25 | 1006.5 |
| 20260903015602 | 97 | 277 | 4.0 | 9.0 | 0.00 | 0.00 | 0.00 | 24 | 1006.5 |
| 20260903015501 | 97 | 295 | 3.0 | 9.0 | 0.00 | 0.00 | 0.00 | 24 | 1006.5 |
| 20260903015059 | 97 | 270 | 1.0 | 9.0 | 0.00 | 0.00 | 0.00 | 24 | 1006.4 |
| 20260903014607 | 97 | 302 | 5.0 | 9.0 | 0.00 | 0.00 | 0.00 | 24 | 1006.5 |
| 20260903014058 | 97 | 282 | 5.0 | 9.0 | 0.00 | 0.00 | 0.00 | 24 | 1006.5 |
| 20260903013559 | 97 | 297 | 3.0 | 7.0 | 0.00 | 0.00 | 0.00 | 24 | 1006.4 |
| 20260903013101 | 98 | 338 | 4.0 | 7.0 | 0.00 | 0.00 | 0.00 | 23 | 1006.4 |
| 20260903012558 | 98 | 268 | 4.0 | 7.0 | 0.00 | 0.00 | 0.00 | 23 | 1006.4 |
| 20260903012057 | 98 | 300 | 2.0 | 8.0 | 0.00 | 0.00 | 0.00 | 25 | 1006.4 |
| 20260903011558 | 99 | 251 | 3.0 | 5.0 | 0.00 | 0.00 | 0.00 | 25 | 1006.4 |
| 20260903011100 | 99 | 285 | 0.0 | 6.0 | 0.00 | 0.00 | 0.00 | 26 | 1006.4 |
| 20260903010556 | 99 | 223 | 3.0 | 9.0 | 0.00 | 0.00 | 0.00 | 25 | 1006.3 |
| 20260903010057 | 99 | 246 | 2.0 | 9.0 | 0.00 | 0.00 | 0.00 | 26 | 1006.2 |
| 20260903005557 | 99 | 298 | 3.0 | 9.0 | 0.00 | 0.00 | 0.00 | 26 | 1006.3 |
| 20260903005056 | 99 | 249 | 2.0 | 7.0 | 0.00 | 0.00 | 0.00 | 26 | 1006.3 |
| 20260903004555 | 99 | 227 | 3.0 | 8.0 | 0.00 | 0.00 | 0.00 | 26 | 1006.3 |
| 20260903004055 | 99 | 263 | 3.0 | 12.0 | 0.00 | 0.00 | 0.00 | 26 | 1006.4 |
| 20260903003555 | 99 | 267 | 3.0 | 12.0 | 0.00 | 0.00 | 0.00 | 26 | 1006.4 |
| 20260903003054 | 99 | 241 | 4.0 | 8.0 | 0.00 | 0.00 | 0.00 | 25 | 1006.4 |
| 20260903002555 | 100 | 291 | 3.0 | 11.0 | 0.00 | 0.00 | 0.00 | 25 | 1006.5 |
| 20260903002054 | 100 | 275 | 5.0 | 11.0 | 0.00 | 0.00 | 0.00 | 25 | 1006.5 |
| 20260903001554 | 100 | 296 | 4.0 | 10.0 | 0.00 | 0.00 | 0.00 | 25 | 1006.4 |
| 20260903001055 | 100 | 259 | 4.0 | 10.0 | 0.00 | 0.00 | 0.00 | 25 | 1006.5 |
| 20260903000553 | 100 | 250 | 5.0 | 10.0 | 0.00 | 0.00 | 0.00 | 25 | 1006.4 |
| 20260903000053 | 100 | 256 | 1.0 | 11.0 | 0.00 | 0.00 | 0.00 | 24 | 1006.4 |
| 20260902235553 | 100 | 288 | 2.0 | 11.0 | 0.00 | 0.00 | 0.00 | 24 | 1006.5 |
| 20260902235052 | 100 | 291 | 5.0 | 11.0 | 0.00 | 0.00 | 0.00 | 24 | 1006.5 |
| 20260902234607 | 100 | 307 | 6.0 | 11.0 | 0.00 | 0.00 | 0.00 | 24 | 1006.6 |
| 20260902234053 | 101 | 271 | 4.0 | 13.0 | 0.00 | 0.00 | 0.00 | 24 | 1006.6 |
| 20260902233551 | 101 | 300 | 4.0 | 13.0 | 0.00 | 0.00 | 0.00 | 24 | 1006.7 |
| 20260902233052 | 101 | 292 | 2.0 | 11.0 | 0.00 | 0.00 | 0.00 | 23 | 1006.7 |
| 20260902232554 | 102 | 270 | 4.0 | 8.0 | 0.00 | 0.00 | 0.00 | 23 | 1006.8 |
| 20260902232049 | 102 | 253 | 3.0 | 7.0 | 0.00 | 0.00 | 0.00 | 24 | 1006.8 |
| 20260902231604 | 101 | 180 | 2.0 | 8.0 | 0.00 | 0.00 | 0.00 | 24 | 1007.0 |
| 20260902231048 | 101 | 188 | 3.0 | 10.0 | 0.00 | 0.00 | 0.00 | 24 | 1007.0 |
| 20260902230547 | 101 | 179 | 3.0 | 10.0 | 0.00 | 0.00 | 0.00 | 24 | 1007.0 |
| 20260902230052 | 101 | 157 | 3.0 | 10.0 | 0.00 | 0.00 | 0.00 | 24 | 1007.1 |
| 20260902225548 | 101 | 273 | 4.0 | 11.0 | 0.00 | 0.00 | 0.00 | 25 | 1007.1 |
| 20260902225048 | 102 | 230 | 5.0 | 11.0 | 0.00 | 0.00 | 0.00 | 24 | 1007.3 |
| 20260902224547 | 102 | 259 | 2.0 | 10.0 | 0.00 | 0.00 | 0.00 | 25 | 1007.2 |
| 20260902224045 | 102 | 260 | 3.0 | 10.0 | 0.00 | 0.00 | 0.00 | 24 | 1007.4 |
| 20260902223544 | 102 | 175 | 2.0 | 13.0 | 0.00 | 0.00 | 0.00 | 24 | 1007.5 |
| 20260902223046 | 102 | 207 | 3.0 | 13.0 | 0.00 | 0.00 | 0.00 | 24 | 1007.5 |
| 20260902222543 | 102 | 235 | 5.0 | 13.0 | 0.00 | 0.00 | 0.00 | 25 | 1007.7 |
| 20260902222041 | 102 | 223 | 2.0 | 14.0 | 0.00 | 0.00 | 0.00 | 25 | 1007.6 |
| 20260902221541 | 101 | 215 | 4.0 | 14.0 | 0.00 | 0.00 | 0.00 | 25 | 1007.7 |
| 20260902221043 | 102 | 160 | 5.0 | 12.0 | 0.00 | 0.00 | 0.00 | 25 | 1007.7 |
| 20260902220544 | 102 | 178 | 4.0 | 7.0 | 0.00 | 0.00 | 0.00 | 25 | 1007.8 |
| 20260902220040 | 102 | 304 | 3.0 | 7.0 | 0.00 | 0.00 | 0.00 | 25 | 1007.8 |
| 20260902215539 | 101 | 196 | 2.0 | 7.0 | 0.00 | 0.00 | 0.00 | 26 | 1007.9 |
| 20260902215036 | 101 | 184 | 2.0 | 9.0 | 0.00 | 0.00 | 0.00 | 26 | 1008.1 |
| 20260902214539 | 100 | 325 | 3.0 | 10.0 | 0.00 | 0.00 | 0.00 | 27 | 1008.1 |
| 20260902214038 | 100 | 283 | 5.0 | 10.0 | 0.00 | 0.00 | 0.00 | 27 | 1008.1 |
| 20260902213534 | 100 | 185 | 3.0 | 9.0 | 0.00 | 0.00 | 0.00 | 28 | 1008.2 |
| 20260902213034 | 100 | 258 | 4.0 | 14.0 | 0.00 | 0.00 | 0.00 | 28 | 1008.2 |
| 20260902212534 | 99 | 229 | 5.0 | 14.0 | 0.00 | 0.00 | 0.00 | 29 | 1008.2 |
| 20260902212033 | 99 | 288 | 2.0 | 12.0 | 0.00 | 0.00 | 0.00 | 31 | 1008.3 |
| 20260902211537 | 99 | 265 | 6.0 | 12.0 | 0.00 | 0.00 | 0.00 | 30 | 1008.4 |
| 20260902211036 | 99 | 273 | 2.0 | 11.0 | 0.00 | 0.00 | 0.00 | 31 | 1008.5 |
| 20260902210531 | 99 | 300 | 5.0 | 11.0 | 0.00 | 0.00 | 0.00 | 30 | 1008.6 |
| 20260902210030 | 99 | 284 | 5.0 | 11.0 | 0.00 | 0.00 | 0.00 | 28 | 1008.6 |
| 20260902205529 | 100 | 268 | 5.0 | 10.0 | 0.00 | 0.00 | 0.00 | 32 | 1008.7 |
| 20260902205029 | 100 | 279 | 2.0 | 7.0 | 0.00 | 0.00 | 0.00 | 33 | 1008.8 |
| 20260902204529 | 99 | 163 | 3.0 | 8.0 | 0.00 | 0.00 | 0.00 | 32 | 1008.9 |
| 20260902204028 | 99 | 323 | 4.0 | 8.0 | 0.00 | 0.00 | 0.00 | 33 | 1008.8 |
| 20260902203530 | 100 | 241 | 2.0 | 7.0 | 0.00 | 0.00 | 0.00 | 32 | 1008.9 |
| 20260902203027 | 99 | 249 | 3.0 | 7.0 | 0.00 | 0.00 | 0.00 | 31 | 1009.1 |
| 20260902202529 | 99 | 200 | 2.0 | 8.0 | 0.00 | 0.00 | 0.00 | 33 | 1009.2 |
| 20260902202027 | 99 | 259 | 4.0 | 9.0 | 0.00 | 0.00 | 0.00 | 32 | 1009.3 |
| 20260902201534 | 98 | 275 | 3.0 | 9.0 | 0.00 | 0.00 | 0.00 | 32 | 1009.4 |
| 20260902201026 | 98 | 348 | 2.0 | 11.0 | 0.00 | 0.00 | 0.00 | 31 | 1009.5 |
| 20260902200526 | 98 | 190 | 5.0 | 11.0 | 0.00 | 0.00 | 0.00 | 31 | 1009.5 |
| 20260902200026 | 98 | 239 | 1.0 | 9.0 | 0.00 | 0.00 | 0.00 | 32 | 1009.6 |
| 20260902195526 | 99 | 246 | 3.0 | 9.0 | 0.00 | 0.00 | 0.00 | 32 | 1009.7 |
| 20260902195025 | 99 | 267 | 1.0 | 6.0 | 0.00 | 0.00 | 0.00 | 31 | 1009.8 |
| 20260902194525 | 99 | 247 | 3.0 | 5.0 | 0.00 | 0.00 | 0.00 | 31 | 1009.9 |
| 20260902194025 | 99 | 206 | 2.0 | 7.0 | 0.00 | 0.00 | 0.00 | 31 | 1009.9 |
| 20260902193524 | 99 | 179 | 2.0 | 7.0 | 0.00 | 0.00 | 0.00 | 32 | 1010.0 |
| 20260902193023 | 99 | 186 | 1.0 | 6.0 | 0.00 | 0.00 | 0.00 | 32 | 1010.0 |
| 20260902192521 | 99 | 207 | 1.0 | 6.0 | 0.00 | 0.00 | 0.00 | 33 | 1010.2 |
| 20260902192022 | 98 | 207 | 1.0 | 5.0 | 0.00 | 0.00 | 0.00 | 33 | 1010.3 |
| 20260902191521 | 98 | 205 | 2.0 | 5.0 | 0.00 | 0.00 | 0.00 | 32 | 1010.4 |
| 20260902191019 | 98 | 150 | 2.0 | 6.0 | 0.00 | 0.00 | 0.00 | 32 | 1010.4 |
| 20260902190519 | 98 | 174 | 1.0 | 6.0 | 0.00 | 0.00 | 0.00 | 34 | 1010.5 |
| 20260902190019 | 97 | 211 | 1.0 | 5.0 | 0.00 | 0.00 | 0.00 | 33 | 1010.5 |
| 20260902185518 | 97 | 263 | 1.0 | 6.0 | 0.00 | 0.00 | 0.00 | 34 | 1010.6 |
| 20260902185017 | 96 | 144 | 2.0 | 6.0 | 0.00 | 0.00 | 0.00 | 36 | 1010.6 |
| 20260902184515 | 95 | 181 | 1.0 | 6.0 | 0.00 | 0.00 | 0.00 | 36 | 1010.8 |
| 20260902184014 | 95 | 218 | 1.0 | 5.0 | 0.00 | 0.00 | 0.00 | 37 | 1010.8 |
| 20260902183513 | 95 | 273 | 2.0 | 5.0 | 0.00 | 0.00 | 0.00 | 37 | 1010.9 |
| 20260902183012 | 94 | 198 | 2.0 | 5.0 | 0.00 | 0.00 | 0.00 | 37 | 1011.0 |
| 20260902182511 | 94 | 211 | 2.0 | 7.0 | 0.00 | 0.00 | 0.00 | 38 | 1011.1 |
| 20260902182012 | 93 | 242 | 2.0 | 7.0 | 0.00 | 0.00 | 0.00 | 38 | 1011.1 |
| 20260902181510 | 93 | 244 | 2.0 | 7.0 | 0.00 | 0.00 | 0.00 | 38 | 1011.2 |
| 20260902181010 | 94 | 205 | 2.0 | 7.0 | 0.00 | 0.00 | 0.00 | 37 | 1011.2 |
| 20260902180510 | 94 | 193 | 1.0 | 4.0 | 0.00 | 0.00 | 0.00 | 37 | 1011.2 |
| 20260902180010 | 94 | 186 | 1.0 | 7.0 | 0.00 | 0.00 | 0.00 | 37 | 1011.2 |
| 20260902175509 | 94 | 286 | 3.0 | 8.0 | 0.00 | 0.00 | 0.00 | 37 | 1011.4 |
| 20260902175008 | 94 | 269 | 3.0 | 8.0 | 0.00 | 0.00 | 0.00 | 37 | 1011.4 |
| 20260902174508 | 94 | 281 | 3.0 | 7.0 | 0.00 | 0.00 | 0.00 | 37 | 1011.5 |
| 20260902174009 | 94 | 208 | 1.0 | 7.0 | 0.00 | 0.00 | 0.00 | 37 | 1011.4 |
| 20260902173505 | 94 | 218 | 1.0 | 8.0 | 0.00 | 0.00 | 0.00 | 36 | 1011.4 |
| 20260902173019 | 93 | 202 | 1.0 | 7.0 | 0.00 | 0.00 | 0.00 | 37 | 1011.4 |
| 20260902172507 | 93 | 221 | 2.0 | 7.0 | 0.00 | 0.00 | 0.00 | 37 | 1011.5 |
| 20260902172005 | 94 | 191 | 1.0 | 9.0 | 0.00 | 0.00 | 0.00 | 37 | 1011.5 |
| 20260902171504 | 93 | 186 | 2.0 | 9.0 | 0.00 | 0.00 | 0.00 | 37 | 1011.4 |
| 20260902171003 | 93 | 194 | 2.0 | 7.0 | 0.00 | 0.00 | 0.00 | 37 | 1011.5 |
| 20260902170502 | 93 | 137 | 1.0 | 5.0 | 0.00 | 0.00 | 0.00 | 37 | 1011.4 |
| 20260902170003 | 93 | 202 | 2.0 | 5.0 | 0.00 | 0.00 | 0.00 | 37 | 1011.4 |
| 20260902165600 | 93 | 213 | 2.0 | 6.0 | 0.00 | 0.00 | 0.00 | 36 | 1011.5 |
| 20260902165101 | 92 | 204 | 2.0 | 6.0 | 0.00 | 0.00 | 0.00 | 37 | 1011.5 |
| 20260902164557 | 92 | 206 | 2.0 | 7.0 | 0.00 | 0.00 | 0.00 | 37 | 1011.4 |
| 20260902164056 | 92 | 246 | 2.0 | 5.0 | 0.00 | 0.00 | 0.00 | 38 | 1011.3 |
| 20260902163555 | 92 | 254 | 1.0 | 5.0 | 0.00 | 0.00 | 0.00 | 38 | 1011.3 |
| 20260902163054 | 92 | 225 | 1.0 | 6.0 | 0.00 | 0.00 | 0.00 | 38 | 1011.3 |
| 20260902162555 | 92 | 200 | 2.0 | 5.0 | 0.00 | 0.00 | 0.00 | 38 | 1011.4 |
| 20260902162051 | 92 | 234 | 1.0 | 7.0 | 0.00 | 0.00 | 0.00 | 38 | 1011.3 |
| 20260902161558 | 91 | 201 | 1.0 | 6.0 | 0.00 | 0.00 | 0.00 | 38 | 1011.2 |
| 20260902161049 | 91 | 253 | 1.0 | 7.0 | 0.00 | 0.00 | 0.00 | 38 | 1011.2 |
| 20260902160547 | 91 | 227 | 3.0 | 7.0 | 0.00 | 0.00 | 0.00 | 38 | 1011.2 |
| 20260902160049 | 91 | 182 | 0.0 | 4.0 | 0.00 | 0.00 | 0.00 | 40 | 1011.2 |
| 20260902155544 | 90 | 205 | 0.0 | 4.0 | 0.00 | 0.00 | 0.00 | 40 | 1011.2 |
| 20260902155043 | 90 | 190 | 1.0 | 6.0 | 0.00 | 0.00 | 0.00 | 41 | 1011.2 |
| 20260902154543 | 90 | 267 | 2.0 | 6.0 | 0.00 | 0.00 | 0.00 | 41 | 1011.2 |
| 20260902154041 | 90 | 232 | 3.0 | 7.0 | 0.00 | 0.00 | 0.00 | 41 | 1011.2 |
| 20260902153539 | 90 | 295 | 2.0 | 7.0 | 0.00 | 0.00 | 0.00 | 41 | 1011.2 |
| 20260902153041 | 89 | 198 | 2.0 | 5.0 | 0.00 | 0.00 | 0.00 | 41 | 1011.1 |
| 20260902152537 | 89 | 155 | 1.0 | 5.0 | 0.00 | 0.00 | 0.00 | 43 | 1011.1 |
| 20260902152036 | 89 | 246 | 1.0 | 5.0 | 0.00 | 0.00 | 0.00 | 43 | 1011.1 |
| 20260902151535 | 88 | 145 | 1.0 | 6.0 | 0.00 | 0.00 | 0.00 | 43 | 1011.1 |
| 20260902151035 | 88 | 302 | 1.0 | 6.0 | 0.00 | 0.00 | 0.00 | 44 | 1011.1 |
| 20260902150534 | 88 | 205 | 1.0 | 4.0 | 0.00 | 0.00 | 0.00 | 43 | 1011.1 |
| 20260902150033 | 88 | 227 | 1.0 | 5.0 | 0.00 | 0.00 | 0.00 | 44 | 1011.0 |
| 20260902145530 | 88 | 196 | 1.0 | 5.0 | 0.00 | 0.00 | 0.00 | 45 | 1010.9 |
| 20260902145029 | 88 | 229 | 0.0 | 4.0 | 0.00 | 0.00 | 0.00 | 46 | 1010.9 |
| 20260902144527 | 87 | 181 | 0.0 | 5.0 | 0.00 | 0.00 | 0.00 | 46 | 1010.8 |
| 20260902144026 | 87 | 169 | 1.0 | 5.0 | 0.00 | 0.00 | 0.00 | 47 | 1010.9 |
| 20260902143526 | 87 | 172 | 0.0 | 4.0 | 0.00 | 0.00 | 0.00 | 48 | 1010.8 |
| 20260902143026 | 86 | 210 | 0.0 | 2.0 | 0.00 | 0.00 | 0.00 | 48 | 1010.9 |
| 20260902142522 | 86 | 188 | 0.0 | 2.0 | 0.00 | 0.00 | 0.00 | 49 | 1010.8 |
| 20260902142021 | 86 | 209 | 0.0 | 3.0 | 0.00 | 0.00 | 0.00 | 49 | 1010.8 |
| 20260902141525 | 86 | 224 | 0.0 | 3.0 | 0.00 | 0.00 | 0.00 | 49 | 1010.7 |
| 20260902141022 | 85 | 180 | 0.0 | 2.0 | 0.00 | 0.00 | 0.00 | 50 | 1010.6 |
| 20260902140517 | 85 | 158 | 0.0 | 0.0 | 0.00 | 0.00 | 0.00 | 50 | 1010.5 |
| 20260902140029 | 84 | 289 | 0.0 | 0.0 | 0.00 | 0.00 | 0.00 | 51 | 1010.5 |
| 20260902135518 | 84 | 291 | 0.0 | 0.0 | 0.00 | 0.00 | 0.00 | 51 | 1010.4 |
| 20260902135015 | 84 | 291 | 0.0 | 0.0 | 0.00 | 0.00 | 0.00 | 51 | 1010.5 |
| 20260902134513 | 84 | 231 | 0.0 | 0.0 | 0.00 | 0.00 | 0.00 | 50 | 1010.4 |
| 20260902134011 | 84 | 240 | 0.0 | 0.0 | 0.00 | 0.00 | 0.00 | 50 | 1010.3 |
| 20260902133510 | 84 | 240 | 0.0 | 0.0 | 0.00 | 0.00 | 0.00 | 50 | 1010.3 |
| 20260902133009 | 84 | 240 | 0.0 | 0.0 | 0.00 | 0.00 | 0.00 | 50 | 1010.2 |
| 20260902132512 | 84 | 219 | 0.0 | 0.0 | 0.00 | 0.00 | 0.00 | 49 | 1010.1 |
| 20260902132007 | 84 | 215 | 0.0 | 0.0 | 0.00 | 0.00 | 0.00 | 49 | 1010.2 |
| 20260902131506 | 84 | 215 | 0.0 | 0.0 | 0.00 | 0.00 | 0.00 | 48 | 1010.1 |
| 20260902131007 | 84 | 250 | 0.0 | 0.0 | 0.00 | 0.00 | 0.00 | 48 | 1010.1 |
| 20260902130504 | 84 | 250 | 0.0 | 0.0 | 0.00 | 0.00 | 0.00 | 48 | 1010.0 |
| 20260902130004 | 85 | 280 | 0.0 | 0.0 | 0.00 | 0.00 | 0.00 | 48 | 1009.9 |
| 20260902125504 | 85 | 280 | 0.0 | 0.0 | 0.00 | 0.00 | 0.00 | 47 | 1009.9 |
| 20260902125002 | 85 | 280 | 0.0 | 0.0 | 0.00 | 0.00 | 0.00 | 47 | 1009.8 |
| 20260902124501 | 85 | 280 | 0.0 | 2.0 | 0.00 | 0.00 | 0.00 | 47 | 1009.7 |
| 20260902124104 | 85 | 280 | 0.0 | 2.0 | 0.00 | 0.00 | 0.00 | 47 | 1009.6 |
| 20260902123559 | 85 | 236 | 0.0 | 2.0 | 0.00 | 0.00 | 0.00 | 46 | 1009.6 |
| 20260902123102 | 85 | 251 | 0.0 | 2.0 | 0.00 | 0.00 | 0.00 | 47 | 1009.6 |
| 20260902122600 | 85 | 219 | 0.0 | 2.0 | 0.00 | 0.00 | 0.00 | 46 | 1009.5 |
| 20260902122057 | 86 | 242 | 0.0 | 3.0 | 0.00 | 0.00 | 0.00 | 46 | 1009.4 |
| 20260902121610 | 86 | 279 | 0.0 | 4.0 | 0.00 | 0.00 | 0.00 | 46 | 1009.4 |
| 20260902121057 | 86 | 253 | 1.0 | 5.0 | 0.00 | 0.00 | 0.00 | 46 | 1009.3 |
| 20260902120555 | 86 | 254 | 1.0 | 6.0 | 0.00 | 0.00 | 0.00 | 46 | 1009.4 |
| 20260902120106 | 86 | 250 | 1.0 | 6.0 | 0.00 | 0.00 | 0.00 | 45 | 1009.4 |
| 20260902115555 | 86 | 317 | 3.0 | 6.0 | 0.00 | 0.00 | 0.00 | 46 | 1009.4 |
| 20260902115054 | 86 | 269 | 2.0 | 6.0 | 0.00 | 0.00 | 0.00 | 45 | 1009.3 |
| 20260902114612 | 86 | 213 | 1.0 | 4.0 | 0.00 | 0.00 | 0.00 | 45 | 1009.3 |
| 20260902114054 | 86 | 217 | 0.0 | 5.0 | 0.00 | 0.00 | 0.00 | 45 | 1009.3 |
| 20260902113553 | 86 | 244 | 1.0 | 5.0 | 0.00 | 0.00 | 0.00 | 45 | 1009.3 |
| 20260902113059 | 86 | 223 | 0.0 | 2.0 | 0.00 | 0.00 | 0.00 | 44 | 1009.2 |
| 20260902112552 | 87 | 234 | 0.0 | 3.0 | 0.00 | 0.00 | 0.00 | 44 | 1009.2 |
| 20260902112053 | 87 | 255 | 0.0 | 4.0 | 0.00 | 0.00 | 0.00 | 44 | 1009.1 |
| 20260902111600 | 87 | 242 | 0.0 | 4.0 | 0.00 | 0.00 | 0.00 | 43 | 1009.1 |
| 20260902111050 | 87 | 228 | 0.0 | 5.0 | 0.00 | 0.00 | 0.00 | 43 | 1009.1 |
| 20260902110550 | 87 | 256 | 0.0 | 5.0 | 0.00 | 0.00 | 0.00 | 43 | 1009.1 |
| 20260902110054 | 87 | 283 | 1.0 | 4.0 | 0.00 | 0.00 | 0.00 | 42 | 1009.1 |
| 20260902105549 | 87 | 277 | 1.0 | 4.0 | 0.00 | 0.00 | 0.00 | 42 | 1009.0 |
| 20260902105048 | 88 | 263 | 0.0 | 3.0 | 0.00 | 0.00 | 0.00 | 41 | 1009.0 |
| 20260902104548 | 88 | 269 | 0.0 | 4.0 | 0.00 | 0.00 | 0.00 | 41 | 1009.1 |
| 20260902104050 | 88 | 234 | 1.0 | 4.0 | 0.00 | 0.00 | 0.00 | 41 | 1009.1 |
| 20260902103549 | 88 | 240 | 0.0 | 6.0 | 0.00 | 0.00 | 0.00 | 41 | 1009.0 |
| 20260902103100 | 88 | 273 | 3.0 | 6.0 | 0.00 | 0.00 | 0.00 | 40 | 1009.1 |
| 20260902102546 | 88 | 268 | 2.0 | 4.0 | 0.00 | 0.00 | 0.00 | 41 | 1009.1 |
| 20260902102045 | 88 | 307 | 0.0 | 5.0 | 0.00 | 0.00 | 0.00 | 41 | 1009.1 |
| 20260902101544 | 88 | 277 | 2.0 | 5.0 | 0.00 | 0.00 | 0.00 | 40 | 1009.1 |
| 20260902101044 | 89 | 281 | 1.0 | 8.0 | 0.00 | 0.00 | 0.00 | 41 | 1009.1 |
| 20260902100547 | 89 | 271 | 3.0 | 8.0 | 0.00 | 0.00 | 0.00 | 41 | 1009.1 |
| 20260902100044 | 89 | 252 | 1.0 | 7.0 | 0.00 | 0.00 | 0.00 | 40 | 1009.1 |
| 20260902095544 | 89 | 257 | 2.0 | 7.0 | 0.00 | 0.00 | 0.00 | 40 | 1009.1 |
| 20260902095043 | 89 | 247 | 4.0 | 9.0 | 0.00 | 0.00 | 0.00 | 40 | 1009.0 |
| 20260902094548 | 89 | 315 | 3.0 | 9.0 | 0.00 | 0.00 | 0.00 | 40 | 1009.1 |
| 20260902094044 | 89 | 259 | 2.0 | 9.0 | 0.00 | 0.00 | 0.00 | 41 | 1009.1 |
| 20260902093544 | 89 | 263 | 5.0 | 9.0 | 0.00 | 0.00 | 0.00 | 41 | 1009.2 |
| 20260902093043 | 89 | 250 | 3.0 | 7.0 | 0.00 | 0.00 | 0.00 | 41 | 1009.1 |
| 20260902092543 | 89 | 252 | 2.0 | 7.0 | 0.00 | 0.00 | 0.00 | 42 | 1009.1 |
| 20260902092043 | 89 | 261 | 2.0 | 5.0 | 0.00 | 0.00 | 0.00 | 42 | 1009.1 |
| 20260902091550 | 89 | 255 | 1.0 | 9.0 | 0.00 | 0.00 | 0.00 | 41 | 1009.1 |
| 20260902091042 | 89 | 281 | 3.0 | 9.0 | 0.00 | 0.00 | 0.00 | 41 | 1009.1 |
| 20260902090543 | 89 | 250 | 3.0 | 8.0 | 0.00 | 0.00 | 0.00 | 42 | 1009.1 |
| 20260902090051 | 89 | 279 | 2.0 | 8.0 | 0.00 | 0.00 | 0.00 | 42 | 1009.2 |
| 20260902085540 | 89 | 272 | 2.0 | 9.0 | 0.00 | 0.00 | 0.00 | 42 | 1009.3 |
| 20260902085041 | 89 | 267 | 4.0 | 9.0 | 0.00 | 0.00 | 0.00 | 42 | 1009.2 |
| 20260902084541 | 89 | 277 | 2.0 | 8.0 | 0.00 | 0.00 | 0.00 | 42 | 1009.3 |
| 20260902084039 | 89 | 254 | 1.0 | 4.0 | 0.00 | 0.00 | 0.00 | 42 | 1009.3 |
| 20260902083539 | 89 | 270 | 1.0 | 6.0 | 0.00 | 0.00 | 0.00 | 42 | 1009.3 |
| 20260902083044 | 89 | 279 | 1.0 | 6.0 | 0.00 | 0.00 | 0.00 | 42 | 1009.4 |
| 20260902082539 | 89 | 241 | 2.0 | 6.0 | 0.00 | 0.00 | 0.00 | 42 | 1009.4 |
| 20260902082039 | 89 | 249 | 2.0 | 6.0 | 0.00 | 0.00 | 0.00 | 41 | 1009.4 |
| 20260902081541 | 90 | 277 | 0.0 | 8.0 | 0.00 | 0.00 | 0.00 | 41 | 1009.4 |
| 20260902081037 | 90 | 231 | 2.0 | 8.0 | 0.00 | 0.00 | 0.00 | 41 | 1009.4 |
| 20260902080537 | 90 | 248 | 2.0 | 7.0 | 0.00 | 0.00 | 0.00 | 41 | 1009.3 |
| 20260902080037 | 90 | 259 | 2.0 | 7.0 | 0.00 | 0.00 | 0.00 | 40 | 1009.4 |
| 20260902075537 | 90 | 284 | 2.0 | 7.0 | 0.00 | 0.00 | 0.00 | 40 | 1009.3 |
| 20260902075035 | 90 | 274 | 2.0 | 7.0 | 0.00 | 0.00 | 0.00 | 40 | 1009.3 |
| 20260902074545 | 90 | 265 | 3.0 | 7.0 | 0.00 | 0.00 | 0.00 | 40 | 1009.3 |
| 20260902074035 | 90 | 287 | 3.0 | 7.0 | 0.00 | 0.00 | 0.00 | 40 | 1009.1 |
| 20260902073534 | 90 | 254 | 2.0 | 6.0 | 0.00 | 0.00 | 0.00 | 40 | 1009.2 |
| 20260902073037 | 90 | 221 | 3.0 | 6.0 | 0.00 | 0.00 | 0.00 | 40 | 1009.2 |
| 20260902072532 | 90 | 237 | 2.0 | 7.0 | 0.00 | 0.00 | 0.00 | 40 | 1009.2 |
| 20260902072034 | 91 | 290 | 2.0 | 7.0 | 0.00 | 0.00 | 0.00 | 40 | 1009.1 |
| 20260902071531 | 91 | 248 | 2.0 | 7.0 | 0.00 | 0.00 | 0.00 | 40 | 1009.1 |
| 20260902071032 | 91 | 289 | 3.0 | 7.0 | 0.00 | 0.00 | 0.00 | 39 | 1009.1 |
| 20260902070530 | 91 | 269 | 3.0 | 10.0 | 0.00 | 0.00 | 0.00 | 39 | 1009.1 |
| 20260902070029 | 91 | 254 | 5.0 | 10.0 | 0.00 | 0.00 | 0.00 | 39 | 1009.0 |